Cosco Aden — VRKF9 — position and weather

sailwx.info

Track history (hours):
 
Tides and Currents Weather Stations Pressure Air Temp Water Temp Dewpoint Dewpoint Depression Visibility Wind Speed Wind Dir Waves Ship Positions

Cosco Aden

Last reported at 2014-Oct-26 17:09 UTC. Time now 2014-Nov-01 05:35 UTC.
Position N 22°18' E 114°06'.

Length 261 m; draft 12.5 m.

Type: Ship (hazmat cat A). MMSI: 477765900.

Date/timePositionNaut miles runAvg speedWind from/ knotsBaromVisibWave heightAir tempDewpointWater temp
2014-Oct-26 17:09N 22°18' E 114°06'1111.2
2014-Oct-26 16:11N 22°22' E 113°55'5 8.3
2014-Oct-26 15:33N 22°27' E 113°53'0 0.2
2014-Oct-26 14:24N 22°27' E 113°53'0 0.0
2014-Oct-26 13:30N 22°27' E 113°53'0 0.0
2014-Oct-26 12:30N 22°27' E 113°53'0 0.0
2014-Oct-26 11:24N 22°27' E 113°53'0 0.0
2014-Oct-26 10:30N 22°27' E 113°53'0 0.0
2014-Oct-26 09:30N 22°27' E 113°53'0 0.0
2014-Oct-26 08:33N 22°27' E 113°53'0 0.1
2014-Oct-26 07:33N 22°27' E 113°53'14 7.2
2014-Oct-26 05:33N 22°18' E 114°06'17 7.8
2014-Oct-26 03:25N 22°02' E 114°04'9 0.6
2014-Oct-25 11:23N 21°59' E 113°55'1011.7
2014-Oct-25 10:33N 22°08' E 113°51'1413.7
2014-Oct-25 09:33N 22°22' E 113°47'1414.2
2014-Oct-25 08:32N 22°36' E 113°43'3 0.4
2014-Oct-25 01:33N 22°38' E 113°42'1313.2
2014-Oct-25 00:33N 22°25' E 113°46'191 9.9
2014-Oct-24 05:16N 23°01' E 117°09'7514.4
2014-Oct-24 00:04N 23°47' E 118°14'3512.8
2014-Oct-23 21:22N 24°09' E 118°43'1213.4
2014-Oct-23 20:28N 24°17' E 118°53'1713.4
2014-Oct-23 19:10N 24°29' E 119°07'1313.8
2014-Oct-23 18:12N 24°37' E 119°19'1014.1
2014-Oct-23 17:29N 24°44' E 119°27'1313.9
2014-Oct-23 16:33N 24°52' E 119°38'31314.9
2014-Oct-22 19:33N 29°25' E 122°28'1615.6
2014-Oct-22 18:33N 29°41' E 122°24'1413.8
2014-Oct-22 17:34N 29°50' E 122°13'9 8.3
2014-Oct-22 16:31N 29°53' E 122°03'0 0.1
2014-Oct-22 15:31N 29°53' E 122°03'0 0.0
2014-Oct-22 14:31N 29°53' E 122°03'0 0.0
2014-Oct-22 13:25N 29°53' E 122°03'0 0.0
2014-Oct-22 12:31N 29°53' E 122°03'0 0.0
2014-Oct-22 11:31N 29°53' E 122°03'0 0.0
2014-Oct-22 10:31N 29°53' E 122°03'0 0.0
2014-Oct-22 09:31N 29°53' E 122°03'0 0.0
2014-Oct-22 08:31N 29°53' E 122°03'0 0.0
2014-Oct-22 07:31N 29°53' E 122°03'0 0.0
2014-Oct-22 06:25N 29°53' E 122°03'0 0.0
2014-Oct-22 05:31N 29°53' E 122°03'0 0.0
2014-Oct-22 04:31N 29°53' E 122°03'0 0.0
2014-Oct-22 03:25N 29°53' E 122°03'1 1.0
2014-Oct-22 02:33N 29°54' E 122°04'7 7.2
2014-Oct-22 01:33N 29°52' E 122°12'1111.0
2014-Oct-22 00:33N 29°44' E 122°21'7 7.0
2014-Oct-21 23:33N 29°45' E 122°29'7 6.8
2014-Oct-21 22:33N 29°48' E 122°36'1413.8
2014-Oct-21 21:31N 29°58' E 122°48'3013.6
2014-Oct-21 19:18N 30°23' E 123°07'2513.1
2014-Oct-21 17:23N 30°47' E 123°18'  
2014-Oct-19 05:29N 36°38' E 122°20'910.1
2014-Oct-19 04:33N 36°44' E 122°29'1010.3
2014-Oct-19 03:33N 36°51' E 122°39'1010.4
2014-Oct-19 02:33N 36°60' E 122°46'1111.3
2014-Oct-19 01:33N 37°11' E 122°46'1211.7
2014-Oct-19 00:33N 37°23' E 122°46'1313.1
2014-Oct-18 23:33N 37°34' E 122°39'1211.8
2014-Oct-18 22:33N 37°43' E 122°28'1111.2
2014-Oct-18 21:33N 37°51' E 122°18'1212.1
2014-Oct-18 20:34N 37°55' E 122°04'1413.2
2014-Oct-18 19:31N 38°04' E 121°50'1313.2
2014-Oct-18 18:34N 38°12' E 121°38'1313.3
2014-Oct-18 17:33N 38°19' E 121°24'1513.5
2014-Oct-18 16:28N 38°26' E 121°07'15412.8
2014-Oct-18 04:27N 38°57' E 117°55'7 6.5
2014-Oct-18 03:26N 38°59' E 117°46'0 0.0
2014-Oct-18 02:32N 38°59' E 117°46'0 0.0
2014-Oct-18 01:32N 38°59' E 117°46'0 0.0
2014-Oct-18 00:26N 38°59' E 117°46'0 0.0
2014-Oct-17 23:32N 38°59' E 117°46'0 0.0
2014-Oct-17 22:32N 38°59' E 117°46'0 0.0
2014-Oct-17 21:32N 38°59' E 117°46'0 0.0
2014-Oct-17 20:26N 38°59' E 117°46'0 0.0
2014-Oct-17 19:32N 38°59' E 117°46'0 0.0
2014-Oct-17 18:26N 38°59' E 117°46'0 0.0
2014-Oct-17 17:20N 38°59' E 117°46'0 0.0
2014-Oct-17 16:32N 38°59' E 117°46'0 0.2
2014-Oct-17 15:33N 38°58' E 117°47'9 9.1
2014-Oct-17 14:33N 38°57' E 117°58'8 8.2
2014-Oct-17 13:33N 38°56' E 118°08'6 6.5
2014-Oct-17 12:34N 38°54' E 118°17'10 9.8
2014-Oct-17 11:33N 38°50' E 118°28'4412.6
2014-Oct-17 08:04N 38°47' E 119°24'7811.5
2014-Oct-17 01:17N 38°34' E 121°03'1013.2
2014-Oct-17 00:32N 38°31' E 121°15'1212.8
2014-Oct-16 23:33N 38°31' E 121°31'1211.8
2014-Oct-16 22:33N 38°35' E 121°46'1312.8
2014-Oct-16 21:33N 38°47' E 121°52'  
Track history (hours):
 
Tides and Currents Weather Stations Pressure Air Temp Water Temp Dewpoint Dewpoint Depression Visibility Wind Speed Wind Dir Waves Ship Positions

Cosco Aden

Last reported at 2014-Oct-26 17:09 UTC. Time now 2014-Nov-01 05:35 UTC.
Position N 22°18' E 114°06'.

Length 261 m; draft 12.5 m.

Type: Ship (hazmat cat A). MMSI: 477765900.

Date/timePositionNaut miles runAvg speedWind from/ knotsBaromVisibWave heightAir tempDewpointWater temp
2014-Oct-26 17:09N 22°18' E 114°06'1111.2
2014-Oct-26 16:11N 22°22' E 113°55'5 8.3
2014-Oct-26 15:33N 22°27' E 113°53'0 0.2
2014-Oct-26 14:24N 22°27' E 113°53'0 0.0
2014-Oct-26 13:30N 22°27' E 113°53'0 0.0
2014-Oct-26 12:30N 22°27' E 113°53'0 0.0
2014-Oct-26 11:24N 22°27' E 113°53'0 0.0
2014-Oct-26 10:30N 22°27' E 113°53'0 0.0
2014-Oct-26 09:30N 22°27' E 113°53'0 0.0
2014-Oct-26 08:33N 22°27' E 113°53'0 0.1
2014-Oct-26 07:33N 22°27' E 113°53'14 7.2
2014-Oct-26 05:33N 22°18' E 114°06'17 7.8
2014-Oct-26 03:25N 22°02' E 114°04'9 0.6
2014-Oct-25 11:23N 21°59' E 113°55'1011.7
2014-Oct-25 10:33N 22°08' E 113°51'1413.7
2014-Oct-25 09:33N 22°22' E 113°47'1414.2
2014-Oct-25 08:32N 22°36' E 113°43'3 0.4
2014-Oct-25 01:33N 22°38' E 113°42'1313.2
2014-Oct-25 00:33N 22°25' E 113°46'191 9.9
2014-Oct-24 05:16N 23°01' E 117°09'7514.4
2014-Oct-24 00:04N 23°47' E 118°14'3512.8
2014-Oct-23 21:22N 24°09' E 118°43'1213.4
2014-Oct-23 20:28N 24°17' E 118°53'1713.4
2014-Oct-23 19:10N 24°29' E 119°07'1313.8
2014-Oct-23 18:12N 24°37' E 119°19'1014.1
2014-Oct-23 17:29N 24°44' E 119°27'1313.9
2014-Oct-23 16:33N 24°52' E 119°38'31314.9
2014-Oct-22 19:33N 29°25' E 122°28'1615.6
2014-Oct-22 18:33N 29°41' E 122°24'1413.8
2014-Oct-22 17:34N 29°50' E 122°13'9 8.3
2014-Oct-22 16:31N 29°53' E 122°03'0 0.1
2014-Oct-22 15:31N 29°53' E 122°03'0 0.0
2014-Oct-22 14:31N 29°53' E 122°03'0 0.0
2014-Oct-22 13:25N 29°53' E 122°03'0 0.0
2014-Oct-22 12:31N 29°53' E 122°03'0 0.0
2014-Oct-22 11:31N 29°53' E 122°03'0 0.0
2014-Oct-22 10:31N 29°53' E 122°03'0 0.0
2014-Oct-22 09:31N 29°53' E 122°03'0 0.0
2014-Oct-22 08:31N 29°53' E 122°03'0 0.0
2014-Oct-22 07:31N 29°53' E 122°03'0 0.0
2014-Oct-22 06:25N 29°53' E 122°03'0 0.0
2014-Oct-22 05:31N 29°53' E 122°03'0 0.0
2014-Oct-22 04:31N 29°53' E 122°03'0 0.0
2014-Oct-22 03:25N 29°53' E 122°03'1 1.0
2014-Oct-22 02:33N 29°54' E 122°04'7 7.2
2014-Oct-22 01:33N 29°52' E 122°12'1111.0
2014-Oct-22 00:33N 29°44' E 122°21'7 7.0
2014-Oct-21 23:33N 29°45' E 122°29'7 6.8
2014-Oct-21 22:33N 29°48' E 122°36'1413.8
2014-Oct-21 21:31N 29°58' E 122°48'3013.6
2014-Oct-21 19:18N 30°23' E 123°07'2513.1
2014-Oct-21 17:23N 30°47' E 123°18'  
2014-Oct-19 05:29N 36°38' E 122°20'910.1
2014-Oct-19 04:33N 36°44' E 122°29'1010.3
2014-Oct-19 03:33N 36°51' E 122°39'1010.4
2014-Oct-19 02:33N 36°60' E 122°46'1111.3
2014-Oct-19 01:33N 37°11' E 122°46'1211.7
2014-Oct-19 00:33N 37°23' E 122°46'1313.1
2014-Oct-18 23:33N 37°34' E 122°39'1211.8
2014-Oct-18 22:33N 37°43' E 122°28'1111.2
2014-Oct-18 21:33N 37°51' E 122°18'1212.1
2014-Oct-18 20:34N 37°55' E 122°04'1413.2
2014-Oct-18 19:31N 38°04' E 121°50'1313.2
2014-Oct-18 18:34N 38°12' E 121°38'1313.3
2014-Oct-18 17:33N 38°19' E 121°24'1513.5
2014-Oct-18 16:28N 38°26' E 121°07'15412.8
2014-Oct-18 04:27N 38°57' E 117°55'7 6.5
2014-Oct-18 03:26N 38°59' E 117°46'0 0.0
2014-Oct-18 02:32N 38°59' E 117°46'0 0.0
2014-Oct-18 01:32N 38°59' E 117°46'0 0.0
2014-Oct-18 00:26N 38°59' E 117°46'0 0.0
2014-Oct-17 23:32N 38°59' E 117°46'0 0.0
2014-Oct-17 22:32N 38°59' E 117°46'0 0.0
2014-Oct-17 21:32N 38°59' E 117°46'0 0.0
2014-Oct-17 20:26N 38°59' E 117°46'0 0.0
2014-Oct-17 19:32N 38°59' E 117°46'0 0.0
2014-Oct-17 18:26N 38°59' E 117°46'0 0.0
2014-Oct-17 17:20N 38°59' E 117°46'0 0.0
2014-Oct-17 16:32N 38°59' E 117°46'0 0.2
2014-Oct-17 15:33N 38°58' E 117°47'9 9.1
2014-Oct-17 14:33N 38°57' E 117°58'8 8.2
2014-Oct-17 13:33N 38°56' E 118°08'6 6.5
2014-Oct-17 12:34N 38°54' E 118°17'10 9.8
2014-Oct-17 11:33N 38°50' E 118°28'4412.6
2014-Oct-17 08:04N 38°47' E 119°24'7811.5
2014-Oct-17 01:17N 38°34' E 121°03'1013.2
2014-Oct-17 00:32N 38°31' E 121°15'1212.8
2014-Oct-16 23:33N 38°31' E 121°31'1211.8
2014-Oct-16 22:33N 38°35' E 121°46'1312.8
2014-Oct-16 21:33N 38°47' E 121°52'  

Dump ship's entire track history